This is the latest recevied weather packets stored in our database for station/object KB3HLL. If no packets are shown the sender has not sent any weather packets the latest 10 day(s).
| Time | Temp. | Humidity | Pressure | Rain* | Wind** | Luminosity | Snow |
|---|---|---|---|---|---|---|---|
| 1777099277 | 10.56° C | 57% | 1009.6 hPa | 0 mm | - | 0 W/m² | - |
| 1777098978 | 11.11° C | 56% | 1009.8 hPa | 0 mm | - | 0 W/m² | - |
| 1777098678 | 11.11° C | 54% | 1010 hPa | 0 mm | - | 0 W/m² | - |
| 1777098378 | 11.11° C | 53% | 1010.2 hPa | 0 mm | - | 0 W/m² | - |
| 1777098078 | 11.11° C | 52% | 1010.2 hPa | 0 mm | - | 0 W/m² | - |
| 1777097778 | 11.67° C | 51% | 1010.4 hPa | 0 mm | - | 0 W/m² | - |
| 1777097477 | 11.67° C | 50% | 1010.6 hPa | 0 mm | - | 0 W/m² | - |
| 1777097177 | 11.67° C | 50% | 1010.7 hPa | 0 mm | - | 0 W/m² | - |
| 1777096877 | 11.67° C | 49% | 1011 hPa | 0 mm | - | 0 W/m² | - |
| 1777096278 | 11.67° C | 49% | 1010.9 hPa | 0 mm | - | 0 W/m² | - |
| 1777095978 | 11.67° C | 50% | 1011.2 hPa | 0 mm | - | 0 W/m² | - |
| 1777095678 | 11.11° C | 52% | 1011.2 hPa | 0 mm | - | 0 W/m² | - |
| 1777095377 | 11.11° C | 54% | 1011.3 hPa | 0 mm | - | 0 W/m² | - |
| 1777095077 | 11.11° C | 55% | 1011.3 hPa | 0 mm | - | 0 W/m² | - |
| 1777094777 | 11.11° C | 56% | 1011.2 hPa | 0 mm | - | 0 W/m² | - |
| 1777094478 | 11.11° C | 56% | 1011.3 hPa | 0 mm | - | 0 W/m² | - |
| 1777094178 | 11.11° C | 57% | 1011.2 hPa | 0 mm | - | 0 W/m² | - |
| 1777093877 | 11.67° C | 59% | 1011.2 hPa | 0 mm | - | 0 W/m² | - |
| 1777093577 | 12.22° C | 60% | 1011.2 hPa | 0 mm | - | 0 W/m² | - |
| 1777093277 | 12.78° C | 52% | 1011.2 hPa | 0 mm | - | 0 W/m² | - |
| 1777092978 | 12.78° C | 49% | 1011.3 hPa | 0 mm | - | 0 W/m² | - |
| 1777092681 | 13.33° C | 48% | 1011.3 hPa | 0 mm | - | 0 W/m² | - |
| 1777092383 | 13.33° C | 47% | 1011.2 hPa | 0 mm | - | 0 W/m² | - |
| 1777092078 | 13.33° C | 47% | 1011.2 hPa | 0 mm | - | 0 W/m² | - |
| 1777091777 | 13.33° C | 47% | 1011.2 hPa | 0 mm | - | 0 W/m² | - |
* Rain latest hour (hover to see other rain measurements)
** Current wind speed in m/s (hover to see current wind gust speed)